TimeEST,TemperatureF,Dew PointF,Humidity,Sea Level PressureIn,VisibilityMPH,Wind Direction,Wind SpeedMPH,Gust SpeedMPH,PrecipitationIn,Events,Conditions,WindDirDegrees,DateUTC
12:56 AM,61.0,59.0,93,30.17,10.0,Calm,Calm,-,N/A,,Mostly Cloudy,0,2013-01-14 05:56:00
1:56 AM,59.0,57.9,96,30.17,5.0,Calm,Calm,-,N/A,,Scattered Clouds,0,2013-01-14 06:56:00
2:56 AM,57.0,55.9,96,30.17,10.0,Calm,Calm,-,N/A,,Scattered Clouds,0,2013-01-14 07:56:00
3:56 AM,57.9,57.0,97,30.15,8.0,Calm,Calm,-,N/A,,Scattered Clouds,0,2013-01-14 08:56:00
4:56 AM,57.9,57.0,97,30.14,9.0,SSE,4.6,-,N/A,,Partly Cloudy,160,2013-01-14 09:56:00
5:56 AM,60.1,57.9,93,30.14,7.0,SSE,3.5,-,N/A,,Partly Cloudy,150,2013-01-14 10:56:00
6:56 AM,57.9,57.0,97,30.16,7.0,SSE,3.5,-,N/A,,Mostly Cloudy,160,2013-01-14 11:56:00
7:56 AM,59.0,59.0,100,30.18,7.0,South,4.6,-,N/A,,Scattered Clouds,180,2013-01-14 12:56:00
8:56 AM,66.9,64.0,90,30.19,10.0,South,9.2,-,N/A,,Scattered Clouds,190,2013-01-14 13:56:00
9:56 AM,72.0,64.0,76,30.19,10.0,South,15.0,20.7,N/A,,Scattered Clouds,190,2013-01-14 14:56:00
10:56 AM,75.9,63.0,64,30.19,10.0,South,9.2,-,N/A,,Scattered Clouds,190,2013-01-14 15:56:00
11:56 AM,78.1,61.0,56,30.16,10.0,SSW,12.7,-,N/A,,Scattered Clouds,200,2013-01-14 16:56:00
12:56 PM,80.1,60.1,50,30.14,10.0,South,9.2,-,N/A,,Scattered Clouds,190,2013-01-14 17:56:00
1:56 PM,81.0,59.0,47,30.11,10.0,SSE,13.8,18.4,N/A,,Scattered Clouds,160,2013-01-14 18:56:00
2:56 PM,81.0,59.0,47,30.12,10.0,South,10.4,-,N/A,,Scattered Clouds,170,2013-01-14 19:56:00
3:56 PM,79.0,59.0,50,30.13,10.0,South,9.2,-,N/A,,Mostly Cloudy,180,2013-01-14 20:56:00
4:56 PM,77.0,59.0,54,30.14,10.0,South,10.4,-,N/A,,Mostly Cloudy,170,2013-01-14 21:56:00
5:56 PM,73.0,61.0,66,30.15,10.0,SE,8.1,-,N/A,,Mostly Cloudy,130,2013-01-14 22:56:00
6:56 PM,69.1,61.0,75,30.16,10.0,SE,10.4,-,N/A,,Mostly Cloudy,140,2013-01-14 23:56:00
7:56 PM,66.9,61.0,81,30.16,10.0,SSE,5.8,-,N/A,,Mostly Cloudy,150,2013-01-15 00:56:00
8:56 PM,64.9,60.1,84,30.16,10.0,SE,5.8,-,N/A,,Mostly Cloudy,140,2013-01-15 01:56:00
9:56 PM,64.9,60.1,84,30.16,10.0,SSE,6.9,-,N/A,,Mostly Cloudy,150,2013-01-15 02:56:00
10:56 PM,63.0,60.1,90,30.17,10.0,West,4.6,-,N/A,,Mostly Cloudy,270,2013-01-15 03:56:00
11:56 PM,63.0,60.1,90,30.17,10.0,Calm,Calm,-,N/A,,Mostly Cloudy,0,2013-01-15 04:56:00